TimeMST,TemperatureF,Dew PointF,Humidity,Sea Level PressureIn,VisibilityMPH,Wind Direction,Wind SpeedMPH,Gust SpeedMPH,PrecipitationIn,Events,Conditions,WindDirDegrees,DateUTC
12:53 AM,45.0,35.1,68,29.81,10.0,SSE,9.2,-,N/A,,Clear,150,2012-11-21 07:53:00
1:53 AM,43.0,35.1,74,29.81,10.0,SSE,9.2,-,N/A,,Clear,160,2012-11-21 08:53:00
2:53 AM,41.0,34.0,76,29.81,10.0,SSE,8.1,-,N/A,,Clear,160,2012-11-21 09:53:00
3:53 AM,39.9,34.0,79,29.80,10.0,SSE,10.4,-,N/A,,Clear,150,2012-11-21 10:53:00
4:53 AM,39.9,33.1,77,29.79,10.0,SSE,9.2,-,N/A,,Clear,150,2012-11-21 11:53:00
5:53 AM,39.9,33.1,77,29.78,10.0,SSE,8.1,-,N/A,,Clear,150,2012-11-21 12:53:00
6:53 AM,39.9,33.1,77,29.75,10.0,SE,8.1,-,N/A,,Clear,140,2012-11-21 13:53:00
7:53 AM,42.1,33.1,70,29.75,10.0,SE,10.4,-,N/A,,Clear,140,2012-11-21 14:53:00
8:53 AM,43.0,34.0,71,29.73,10.0,South,9.2,-,N/A,,Clear,170,2012-11-21 15:53:00
9:53 AM,46.0,35.1,66,29.70,10.0,SSE,12.7,-,N/A,,Clear,160,2012-11-21 16:53:00
10:53 AM,50.0,35.1,57,29.68,10.0,SSE,11.5,-,N/A,,Clear,150,2012-11-21 17:53:00
11:53 AM,55.0,36.0,49,29.63,10.0,SSE,9.2,-,N/A,,Clear,150,2012-11-21 18:53:00
12:53 PM,59.0,37.9,46,29.60,10.0,SSE,6.9,-,N/A,,Clear,160,2012-11-21 19:53:00
1:53 PM,64.0,37.9,38,29.60,10.0,West,6.9,-,N/A,,Clear,270,2012-11-21 20:53:00
2:53 PM,55.9,37.0,49,29.64,10.0,NW,20.7,25.3,N/A,,Clear,320,2012-11-21 21:53:00
3:53 PM,52.0,37.0,57,29.68,10.0,NW,9.2,-,N/A,,Partly Cloudy,320,2012-11-21 22:53:00
4:53 PM,48.9,37.9,66,29.66,10.0,NNW,10.4,-,0.00,Rain,Light Rain,330,2012-11-21 23:53:00
5:53 PM,48.0,39.0,71,29.76,10.0,SW,8.1,-,0.00,,Overcast,220,2012-11-22 00:53:00
6:53 PM,45.0,37.0,74,29.75,10.0,NW,4.6,-,N/A,,Clear,320,2012-11-22 01:53:00
7:53 PM,46.9,37.9,71,29.76,10.0,WNW,18.4,-,0.00,Rain,Light Rain,290,2012-11-22 02:53:00
8:53 PM,45.0,39.9,82,29.79,10.0,West,13.8,-,0.01,,Mostly Cloudy,280,2012-11-22 03:53:00
9:53 PM,45.0,39.0,80,29.81,10.0,West,8.1,-,N/A,,Mostly Cloudy,270,2012-11-22 04:53:00
10:53 PM,46.9,33.1,59,29.80,10.0,WNW,17.3,24.2,N/A,,Mostly Cloudy,300,2012-11-22 05:53:00
11:53 PM,46.0,34.0,63,29.85,10.0,WNW,18.4,26.5,N/A,,Overcast,290,2012-11-22 06:53:00